Location: Unspecified
(0.0000°N, 0.0000°E)
Time: 05:22:43
(UTC+00:00)

S-56A Canister/Altair - Pass Details

Date: 30 May 2024
Orbit: 637 x 2489 km, 38.9° (Epoch: 21 June)

Event Time Altitude Azimuth Distance (km) Brightness Sun altitude
Rises 21:41:19 0° 201° (SSW) 4,537 - -50.2°
Reaches altitude 10° 21:44:58 10° 186° (S) 3,854 - -50.9°
Maximum altitude 21:52:53 24° 137° (SE) 3,442 - -52.5°
Drops below altitude 10° 22:02:43 10° 90° (E) 4,914 - -54.4°
Sets 22:08:07 0° 78° (ENE) 6,081 - -55.4°
